Location: Unspecified
(35.7250°N, 0.0000°E)
Time: 18:27:07
(UTC+00:00)

Tiros 1 - Pass Details

Date: 02 July 2019
Orbit: 631 x 664 km, 48.4° (Epoch: 23 August)

Event Time Altitude Azimuth Distance (km) Brightness Sun altitude
Rises 19:36:50 0° 253° (WSW) 2,976 11.2 -3.8°
Reaches altitude 10° 19:39:17 10° 260° (W) 2,062 10.5 -4.2°
Maximum altitude 19:43:48 42° 332° (NNW) 937 8.6 -5.0°
Drops below altitude 10° 19:48:17 10° 43° (NE) 2,048 9.6 -5.7°
Sets 19:50:44 0° 50° (NE) 2,954 10.4 -6.1°
